| time (UTC) | temp F | wind direction | speed MPH | gust MPH | rain 1hr in | rain 24hr in | rain mn in | humidity % | barometer mb |
| 20260510010030 | 54 | 186 | 0.0 | 4.0 | 0.00 | 0.24 | 0.24 | 92 | 1012.5 |
| 20260510004532 | 54 | 167 | 0.0 | 3.0 | 0.01 | 0.24 | 0.24 | 92 | 1012.2 |
| 20260510003029 | 54 | 154 | 0.0 | 5.0 | 0.01 | 0.24 | 0.24 | 92 | 1012.3 |
| 20260510001528 | 54 | 148 | 1.0 | 7.0 | 0.01 | 0.24 | 0.24 | 92 | 1012.2 |
| 20260510000037 | 54 | 148 | 1.0 | 4.0 | 0.02 | 0.24 | 0.24 | 92 | 1012.3 |
| 20260509234527 | 55 | 120 | 1.0 | 5.0 | 0.05 | 0.23 | 0.23 | 92 | 1012.2 |
| 20260509233026 | 55 | 202 | 0.0 | 7.0 | 0.11 | 0.23 | 0.23 | 92 | 1012.2 |
| 20260509231527 | 55 | 173 | 0.0 | 9.0 | 0.14 | 0.23 | 0.23 | 92 | 1012.1 |
| 20260509230026 | 55 | 153 | 1.0 | 8.0 | 0.16 | 0.22 | 0.22 | 92 | 1011.8 |
| 20260509224525 | 55 | 207 | 2.0 | 7.0 | 0.14 | 0.18 | 0.18 | 91 | 1011.9 |
| 20260509223023 | 55 | 190 | 1.0 | 7.0 | 0.09 | 0.12 | 0.12 | 91 | 1011.7 |
| 20260509221523 | 55 | 207 | 2.0 | 8.0 | 0.07 | 0.09 | 0.09 | 90 | 1011.5 |
| 20260509220023 | 56 | 164 | 1.0 | 10.0 | 0.05 | 0.06 | 0.06 | 90 | 1011.5 |
| 20260509214521 | 56 | 192 | 2.0 | 10.0 | 0.03 | 0.04 | 0.04 | 89 | 1011.4 |
| 20260509213027 | 56 | 163 | 2.0 | 10.0 | 0.02 | 0.03 | 0.03 | 87 | 1011.3 |
| 20260509211520 | 58 | 200 | 5.0 | 11.0 | 0.01 | 0.02 | 0.02 | 80 | 1011.1 |
| 20260509210019 | 59 | 184 | 3.0 | 11.0 | 0.00 | 0.01 | 0.01 | 77 | 1010.6 |
| 20260509204518 | 60 | 194 | 4.0 | 9.0 | 0.00 | 0.01 | 0.01 | 77 | 1011.1 |
| 20260509203017 | 60 | 134 | 3.0 | 10.0 | 0.00 | 0.01 | 0.01 | 76 | 1010.9 |
| 20260509201517 | 61 | 248 | 0.0 | 5.0 | 0.00 | 0.01 | 0.01 | 69 | 1010.8 |
| 20260509200017 | 61 | 158 | 1.0 | 8.0 | 0.00 | 0.01 | 0.01 | 69 | 1010.8 |
| 20260509194516 | 62 | 161 | 4.0 | 16.0 | 0.00 | 0.01 | 0.01 | 66 | 1010.9 |
| 20260509193025 | 62 | 146 | 2.0 | 9.0 | 0.00 | 0.01 | 0.01 | 69 | 1010.8 |
| 20260509191512 | 62 | 213 | 0.0 | 10.0 | 0.00 | 0.01 | 0.01 | 69 | 1010.7 |
| 20260509190012 | 62 | 177 | 2.0 | 5.0 | 0.00 | 0.01 | 0.01 | 70 | 1010.8 |
| 20260509184528 | 62 | 268 | 1.0 | 8.0 | 0.00 | 0.01 | 0.01 | 70 | 1011.1 |
| 20260509183008 | 61 | 187 | 1.0 | 7.0 | 0.00 | 0.01 | 0.01 | 73 | 1011.1 |
| 20260509181508 | 60 | 153 | 2.0 | 10.0 | 0.00 | 0.01 | 0.01 | 78 | 1010.9 |
| 20260509180004 | 59 | 159 | 1.0 | 5.0 | 0.00 | 0.01 | 0.01 | 77 | 1011.6 |
| 20260509174503 | 60 | 169 | 1.0 | 9.0 | 0.00 | 0.01 | 0.01 | 72 | 1011.9 |
| 20260509173002 | 61 | 164 | 3.0 | 10.0 | 0.00 | 0.01 | 0.01 | 68 | 1012.0 |
| 20260509171500 | 61 | 198 | 3.0 | 7.0 | 0.00 | 0.01 | 0.01 | 67 | 1011.8 |
| 20260509170107 | 61 | 155 | 0.0 | 5.0 | 0.00 | 0.01 | 0.01 | 70 | 1011.9 |
| 20260509164559 | 60 | 249 | 0.0 | 7.0 | 0.00 | 0.01 | 0.01 | 70 | 1011.9 |
| 20260509163057 | 60 | 167 | 0.0 | 7.0 | 0.00 | 0.01 | 0.01 | 71 | 1011.9 |
| 20260509161552 | 59 | 181 | 2.0 | 8.0 | 0.00 | 0.01 | 0.01 | 71 | 1012.2 |
| 20260509160051 | 59 | 183 | 1.0 | 6.0 | 0.00 | 0.01 | 0.01 | 71 | 1012.3 |
| 20260509154549 | 59 | 180 | 0.0 | 8.0 | 0.00 | 0.01 | 0.01 | 72 | 1012.6 |
| 20260509153055 | 58 | 144 | 1.0 | 7.0 | 0.00 | 0.01 | 0.01 | 73 | 1012.8 |
| 20260509151540 | 56 | 158 | 2.0 | 7.0 | 0.00 | 0.01 | 0.01 | 75 | 1012.8 |
| 20260509150037 | 55 | 178 | 0.0 | 9.0 | 0.00 | 0.01 | 0.01 | 75 | 1012.7 |
| 20260509144534 | 54 | 131 | 1.0 | 5.0 | 0.00 | 0.01 | 0.01 | 76 | 1013.0 |
| 20260509143031 | 53 | 159 | 2.0 | 5.0 | 0.00 | 0.01 | 0.01 | 79 | 1013.3 |
| 20260509141527 | 52 | 139 | 0.0 | 4.0 | 0.00 | 0.01 | 0.01 | 83 | 1013.4 |
| 20260509140023 | 51 | 150 | 2.0 | 6.0 | 0.00 | 0.01 | 0.01 | 88 | 1013.7 |
| 20260509134519 | 50 | 195 | 1.0 | 5.0 | 0.00 | 0.01 | 0.01 | 91 | 1013.9 |
| 20260509133015 | 48 | 150 | 0.0 | 1.0 | 0.00 | 0.01 | 0.01 | 92 | 1013.9 |
| 20260509131513 | 46 | 155 | 0.0 | 2.0 | 0.00 | 0.01 | 0.01 | 91 | 1014.0 |
| 20260509130016 | 45 | 157 | 0.0 | 0.0 | 0.00 | 0.01 | 0.01 | 91 | 1013.9 |
| 20260509124504 | 45 | 157 | 0.0 | 0.0 | 0.00 | 0.01 | 0.01 | 90 | 1013.6 |
| 20260509123002 | 45 | 157 | 0.0 | 1.0 | 0.01 | 0.01 | 0.01 | 90 | 1013.9 |
| 20260509121501 | 44 | 157 | 0.0 | 0.0 | 0.01 | 0.01 | 0.01 | 90 | 1014.2 |
| 20260509120100 | 44 | 157 | 0.0 | 3.0 | 0.01 | 0.01 | 0.01 | 90 | 1014.5 |
| 20260509114604 | 44 | 158 | 0.0 | 5.0 | 0.01 | 0.01 | 0.01 | 90 | 1014.7 |
| 20260509113059 | 43 | 153 | 0.0 | 4.0 | 0.00 | 0.00 | 0.00 | 90 | 1014.7 |
| 20260509111555 | 42 | 167 | 0.0 | 5.0 | 0.00 | 0.00 | 0.00 | 91 | 1014.8 |
| 20260509110053 | 41 | 144 | 0.0 | 1.0 | 0.00 | 0.00 | 0.00 | 90 | 1014.6 |
| 20260509104553 | 40 | 144 | 0.0 | 0.0 | 0.00 | 0.00 | 0.00 | 90 | 1014.3 |
| 20260509103059 | 39 | 144 | 0.0 | 0.0 | 0.00 | 0.00 | 0.00 | 90 | 1014.0 |
| 20260509101559 | 38 | 144 | 0.0 | 0.0 | 0.00 | 0.00 | 0.00 | 89 | 1013.6 |
| 20260509100045 | 38 | 144 | 0.0 | 0.0 | 0.00 | 0.00 | 0.00 | 89 | 1013.5 |
| 20260509094551 | 37 | 144 | 0.0 | 0.0 | 0.00 | 0.00 | 0.00 | 88 | 1013.3 |
| 20260509093043 | 37 | 144 | 0.0 | 0.0 | 0.00 | 0.00 | 0.00 | 87 | 1013.3 |
| 20260509091544 | 37 | 144 | 0.0 | 0.0 | 0.00 | 0.00 | 0.00 | 86 | 1013.4 |
| 20260509090047 | 37 | 144 | 0.0 | 0.0 | 0.00 | 0.00 | 0.00 | 85 | 1013.2 |
| 20260509084544 | 38 | 144 | 0.0 | 0.0 | 0.00 | 0.00 | 0.00 | 85 | 1013.0 |
| 20260509083050 | 38 | 144 | 0.0 | 0.0 | 0.00 | 0.00 | 0.00 | 85 | 1013.2 |
| 20260509081535 | 38 | 144 | 0.0 | 0.0 | 0.00 | 0.00 | 0.00 | 84 | 1013.4 |
| 20260509080034 | 39 | 144 | 0.0 | 0.0 | 0.00 | 0.00 | 0.00 | 84 | 1013.5 |
| 20260509074532 | 39 | 144 | 0.0 | 0.0 | 0.00 | 0.00 | 0.00 | 84 | 1013.3 |
| 20260509073033 | 39 | 144 | 0.0 | 0.0 | 0.00 | 0.00 | 0.00 | 85 | 1013.4 |
| 20260509071535 | 39 | 144 | 0.0 | 0.0 | 0.00 | 0.00 | 0.00 | 84 | 1013.4 |
| 20260509070028 | 39 | 144 | 0.0 | 1.0 | 0.00 | 0.00 | 0.00 | 84 | 1013.3 |
| 20260509064527 | 39 | 136 | 1.0 | 4.0 | 0.00 | 0.00 | 0.00 | 84 | 1013.3 |
| 20260509063024 | 39 | 30 | 0.0 | 0.0 | 0.00 | 0.00 | 0.00 | 83 | 1012.9 |
| 20260509061523 | 40 | 30 | 0.0 | 0.0 | 0.00 | 0.00 | 0.00 | 83 | 1012.9 |
| 20260509060020 | 40 | 30 | 0.0 | 0.0 | 0.00 | 0.00 | 0.00 | 81 | 1012.9 |
| 20260509054519 | 40 | 30 | 0.0 | 1.0 | 0.00 | 0.00 | 0.00 | 80 | 1012.9 |
| 20260509053018 | 40 | 30 | 0.0 | 0.0 | 0.00 | 0.00 | 0.00 | 79 | 1013.0 |
| 20260509051515 | 41 | 29 | 0.0 | 0.0 | 0.00 | 0.00 | 0.00 | 78 | 1012.9 |
| 20260509050018 | 41 | 30 | 0.0 | 0.0 | 0.00 | 0.00 | 0.00 | 77 | 1012.9 |
| 20260509044510 | 42 | 29 | 0.0 | 0.0 | 0.00 | 0.00 | 0.00 | 76 | 1012.9 |
| 20260509043009 | 42 | 29 | 0.0 | 0.0 | 0.00 | 0.00 | 0.00 | 75 | 1012.7 |
| 20260509041505 | 43 | 29 | 0.0 | 0.0 | 0.00 | 0.00 | 0.00 | 75 | 1012.5 |
| 20260509040003 | 43 | 29 | 0.0 | 0.0 | 0.00 | 0.00 | 0.00 | 73 | 1012.4 |
| 20260509034502 | 44 | 29 | 0.0 | 0.0 | 0.00 | 0.00 | 0.00 | 73 | 1012.5 |
| 20260509033101 | 44 | 29 | 0.0 | 0.0 | 0.00 | 0.00 | 0.00 | 73 | 1012.5 |
| 20260509033001 | 44 | 29 | 0.0 | 0.0 | 0.00 | 0.00 | 0.00 | 73 | 1012.5 |
| 20260509031603 | 45 | 29 | 0.0 | 0.0 | 0.00 | 0.00 | 0.00 | 72 | 1012.4 |
| 20260509030114 | 45 | 29 | 0.0 | 0.0 | 0.00 | 0.00 | 0.00 | 72 | 1012.4 |
| 20260509024601 | 46 | 29 | 0.0 | 0.0 | 0.00 | 0.00 | 0.00 | 69 | 1012.2 |
| 20260509023058 | 46 | 29 | 0.0 | 0.0 | 0.00 | 0.00 | 0.00 | 68 | 1012.1 |
| 20260509021554 | 47 | 29 | 0.0 | 0.0 | 0.00 | 0.00 | 0.00 | 67 | 1012.0 |
| 20260509014549 | 47 | 29 | 0.0 | 2.0 | 0.00 | 0.00 | 0.00 | 66 | 1011.4 |
| 20260509013046 | 47 | 21 | 0.0 | 0.0 | 0.00 | 0.00 | 0.00 | 65 | 1011.2 |
| 20260509011545 | 48 | 21 | 0.0 | 0.0 | 0.00 | 0.00 | 0.00 | 64 | 1010.9 |